Torna al catalogo

THOR ABLESTAR DEB

AttivoLEO
NORAD 480·DEBRIS·🇺🇸 United States

Lanciato Jun 29, 1961 da Cape Canaveral Space Force Station

Loading…

Prossimi Passaggi (prossime 24 ore)

TLE

AggiornatoSource: Space-Track

Epoca: Sep 13, 2026, 22:09 UTC

1 00480U 61015FS  26256.92345270  .00000939  00000-0  30296-3 0  9992
2 00480  66.2367 179.9821 0067583  83.8730 277.0065 14.42512157367611

Traccia THOR ABLESTAR DEB in tempo reale con AllMySat

Download on the App Store